Location: Budapest
(47.4979°N, 19.0402°E)
Time: 12:59:48
(UTC+01:00)

N. Korean satellite - Pass Details

Date: 08 October 2017
Orbit: 461 x 513 km, 97.2° (Epoch: 11 December)

Event Time Altitude Azimuth Distance (km) Brightness Sun altitude
Rises 19:56:46 0° 215° (SW) 2,569 10.5 -18.9°
Reaches altitude 10° 20:00:04 10° 248° (WSW) 1,681 10.1 -19.4°
Maximum altitude 20:01:27 12° 271° (W) 1,568 10.2 -19.7°
Drops below altitude 10° 20:02:49 10° 293° (WNW) 1,674 10.5 -19.9°
Sets 20:06:07 0° 327° (NNW) 2,548 10.9 -20.4°
